Погода в Новой Слободе

Украина / Сумская область     51°22′16″N   34°07′09″E
темп.,
°C
ветер,
м/с
пор.,
м/с
влажн.,
%
обл.,
%
осадки,
мм/ч
давл.,
гПа
погр.,
м
25 октября, пн
пн2500:00+1сз48835 0.1 1029256
03:000сз38825 0.1 1030221
06:00−1ссз36825 0.0 1032137
09:000ссз24715 0.0 1033182
12:00+4ссз235399 0.0 1034796
15:00+6зсз23465 0.0 1033984
18:00+3з12595 0.0 103310
21:00+2юз22645 0.0 103311
26 октября, вт
вт2600:00+1ююз33690 0.0 103337
03:000ююз34735 0.0 103365
06:00−1ююз35765 0.0 103265
09:00+1ююз37645 0.0 1032190
12:00+7ююз574443 0.0 1031585
15:00+9ююз68395 0.0 1028778
18:00+5ююз375419 0.0 1028119
21:00+3ююз410595 0.0 1028189
27 октября, ср
ср2700:00+3ююз410605 0.0 1028193
03:00+2ююз410625 0.0 1027186
06:00+1ююз410630 0.0 1027181
09:00+3ююз511560 0.0 1027303
12:00+8юз69460 0.0 1026630
15:00+10юз68451 0.0 1025919
18:00+6юз37620 0.0 1025127
21:00+5юз387578 0.0 1025133
28 октября, чт
чт2800:00+4зюз358992 0.0 102667
03:00+4з3389100 0.0 102636
06:00+4зюз2379100 0.0 102644
09:00+5зюз357737 0.0 1026161
12:00+10з466320 0.0 1026496
15:00+12з576035 0.0 1025693
18:00+8зюз487699 0.0 1025141
21:00+7зюз497852 0.0 1025172
29 октября, пт
пт2900:00+9з4107297 0.0 1025277
03:00+8з4877100 0.0 1025235
06:00+8з3784100 0.0 1025187
09:00+8зсз378599 0.0 1026209
12:00+12сз357287 0.0 1026468
15:00+14сз336779 0.0 1026873
18:00+12ссз227591 0.0 102717
21:00+11ссв118442 0.0 102711